Regional Weather Roundup
Issued by NWS

Home | Current Version | Previous Version | Graphics & Text | Print | Product List | Glossary Off
Versions: 1 2 3 4 5 6 7 8 9 10 11 12 13 14 15 16 17 18 19 20 21 22 23 24 25 26 27 28 29 30 31 32 33 34 35 36 37 38 39 40 41 42 43 44 45 46 47 48 49 50

000
ASUS45 KBOU 050310
RWRCO

WEATHER ROUNDUP FOR COLORADO
NATIONAL WEATHER SERVICE DENVER/BOULDER CO
900 PM MDT SAT JUL 04 2015

NOTE: "FAIR" INDICATES FEW OR NO CLOUDS BELOW 12000 FEET WITH NO
SIGNIFICANT WEATHER AND/OR OBSTRUCTIONS TO VISIBILITY.

COZ001>005-013-030-031-050400-
...NORTHWEST COLORADO...

CITY           SKY/WX    TMP DP  RH WIND       PRES   REMARKS
CRAIG          CLOUDY    67  52  58 VRB5      30.09S
HAYDEN         CLOUDY    64  50  59 E6        30.12S
MEEKER         CLOUDY    71  49  45 E17G25    30.12S
MOUNT WERNER   NOT AVBL
STEAMBOAT SPGS CLOUDY    69  46  43 CALM      30.14F
WALDEN         CLOUDY    57  50  77 SE5       30.23S
$$

COZ006>008-011-050400-
...WEST CENTRAL VALLEYS...

CITY           SKY/WX    TMP DP  RH WIND       PRES   REMARKS
GRAND JUNCTION MOCLDY    84  48  28 E17       29.93R
MONTROSE       CLOUDY    79  49  34 S8        30.06R
EAGLE          CLOUDY    72  46  40 W12G23    30.18R
RIFLE          CLOUDY    69  58  67 S14G21    30.10R
DELTA          CLOUDY    85  49  29 SW5       30.00R
NUCLA          CLOUDY    77  50  38 NW8       30.13R
$$

COZ017>023-064>068-050400-
...SOUTHWEST COLORADO...

CITY           SKY/WX    TMP DP  RH WIND       PRES   REMARKS
DURANGO        LGT RAIN  61  58  90 N7        30.27R
CORTEZ         CLOUDY    73  52  47 NW9       30.15R
PAGOSA SPRINGS CLOUDY    61  56  83 CALM      30.32R
TELLURIDE      CLOUDY    64  47  54 SE17      30.38R THUNDER
WOLF CREEK PAS NOT AVBL
$$

COZ009-010-012-014-032>034-037-058>063-050400-
...CENTRAL COLORADO...

CITY           SKY/WX    TMP DP  RH WIND       PRES   REMARKS
ASPEN          CLOUDY    64  54  69 N6        30.25R
BUENA VISTA    MOCLDY    57  51  78 W6        30.29R
COPPER MTN     CLOUDY    55  37  50 S10G17    30.59R
BERTHOUD PASS  CLOUDY    45  34  65 E13       30.63S
COTTONWOOD PAS NOT AVBL
GUNNISON       CLOUDY    70  46  43 E6        30.27R
KREMMLING      CLOUDY    70  43  37 SE3       30.21R
LEADVILLE      CLOUDY    56  47  71 CALM      30.41R
MONARCH PASS   CLOUDY    50  41  71 S16       30.68R
SALIDA         CLOUDY    69  47  46 S5        30.32R
SUNLIGHT       LGT RAIN  52  46  82 N10G18    30.51S
WILKERSON PASS CLOUDY    54  37  54 CALM      30.56S
$$

COZ069>075-050400-
...SAN LUIS VALLEY/SANGRE DE CRISTO MOUNTAINS...

CITY           SKY/WX    TMP DP  RH WIND       PRES   REMARKS
ALAMOSA        CLOUDY    65  46  50 SE14      30.24R
LA VETA PASS   CLOUDY    46  41  81 MISG      30.44F
SAGUACHE       CLOUDY    63  54  72 CALM      30.29R
$$

COZ035-036-038>040-050400-
...NORTHERN COLORADO FRONT RANGE...

CITY           SKY/WX    TMP DP  RH WIND       PRES   REMARKS
DENVER INTL AP CLOUDY    77  49  37 S15       30.01R
DMNS CITY PARK   N/A     76  49  39 SW10G20   30.01S
AURORA         MOCLDY    74  51  45 SW17      30.04S
FRONT RANGE AP MOCLDY    77  52  41 S8        30.04R
ERIE MUNI ARPT CLOUDY    77  45  31 W14G20    29.96F
BOULDER MUN AP CLOUDY    72  52  49 SW18G32   29.97F
CENTENNIAL     CLOUDY    73  51  46 SW13      30.07R
BROOMFIELD     DRIZZLE   73  50  43 SW17G29   30.03F
FORT COLLINS   MOCLDY    75  52  43 SW8       29.97R
LONGMONT       MOCLDY    78  47  33 W12       29.98S
$$

COZ041-046-047-076>085-087-088-050400-
...PIKES PEAK/PALMER DIVIDE AND SOUTHERN FOOTHILLS...

CITY           SKY/WX    TMP DP  RH WIND       PRES   REMARKS
COLO. SPRINGS  CLOUDY    72  49  44 N14       30.10F
A. F. ACADEMY  CLOUDY    67  51  56 NW10      30.14S
ELLICOTT       CLOUDY   N/A N/A N/A NW7       30.05F
FALCON         CLOUDY    67  46  46 N8        30.16F
FORT CARSON    CLOUDY    72  51  47 N13       30.06S
LIMON          CLOUDY    70  51  51 NW8       29.99F
MONUMENT HILL  NOT AVBL
TRINIDAD       CLOUDY    73  51  46 W14       30.06S
$$

COZ042>045-048>051-090-091-050400-
...NORTHEAST COLORADO...

CITY           SKY/WX    TMP DP  RH WIND       PRES   REMARKS
GREELEY ARPT   MOCLDY    73  64  73 S9        29.95R
AKRON          MOCLDY    74  53  48 S12       29.92S
BURLINGTON     CLOUDY    82  58  43 S18       29.93R
WRAY           CLOUDY    84  61  44 SE18G26   29.87R
STERLING       MOCLDY    81  57  44 S9          N/A
HOLYOKE        CLOUDY    82  59  44 S12       29.86R
FORT MORGAN    MOCLDY    75  56  50 NE6       29.91R
$$

COZ086-089-092>099-050400-
...SOUTHEAST COLORADO...

CITY           SKY/WX    TMP DP  RH WIND       PRES   REMARKS
PUEBLO         MOCLDY    78  53  41 W9        29.98R
LA JUNTA       PTCLDY    79  52  38 W9        29.91R
LAMAR          CLEAR     84  55  36 S25G37    29.85R
SPRINGFIELD      N/A     65  59  81 SW24G41   30.02R
$$


USA.gov is the U.S. government's official web portal to all federal, state and local government web resources and services.